TITAN 3C TRANSTAGE DEB, 43284

Orbit data source: Space-Track

TITAN 3C TRANSTAGE DEB, 43284 is space debris in GEO originally from a launch on Sun, 09 Feb 1969 UTC launched from the Air Force Eastern Test Range (AFETR). Debris objects in space refer to the collection of defunct objects orbiting the Earth. Examples of debris include non-operational satellites, rocket bodies, and fragments generated from explosions, collisions, or faulty payload assembly.

Loading next visibility...
Identifier
43284, 1969-013E
Orbit
GEO
Country
Flag of USUS
Related business
Manufacturer
Martin Marietta
Mission
Spacecraft
Bus & Motor
Unknown
Mass
Unknown
Launch date (UTC)
1969-02-09 (57 years ago)
Launch vehicle
Unknown
Launch site
Air Force Eastern Test Range (AFETR)
Object type
Payload
Rocket body
Debris
Shape & HBR
Unknown shape, 1.1 m
Radar Cross Section
RCS unknown

Expand to show TLE details & history
Last TLE update: 1 day ago

TLE from 1 day ago
0 TITAN 3C TRANSTAGE DEB
1 43284U 69013E   25351.00360884 -.00000052  00000-0  00000-0 0  9993
2 43284   0.8615  74.4196 0139914  45.0222 241.9779  0.97231140 27528
Epoch: 2025-12-17T00:05Z
TLE epoch observation values (Epoch: 2025-12-17T00:05:11.803Z)
Latitude
-0.82195°
Longitude
-87.17709°
Altitude
36,947.907 km
Speed
3.023 km/s
True Right ascension
00h 00m 00s
True Declination
0° 49' 16"
Sunlit
Object was in daylight at epoch
Visualization orbit readout
Latitude
Unknown
Longitude
Unknown
Altitude
Unknown
Speed
Unknown
Apparent Right ascension
Unknown
Apparent Declination
Unknown
Sunlit
N/A
Visualization observer readout
Local Sidereal Time
04:07:54
Azimuth
Unknown
Elevation
Unknown
Doppler factor
Unknown
Orbital elements
Apogee altitude
37,264.38 km
Perigee altitude
36,059.991 km
Semi-major axis
43,040.322 km
Eccentricity
0.01399
Inclination
0.8615°
RAAN
74.4196°
Arg. of periapsis
45.0222°
True anomaly
240.57424°
Mean anomaly
241.9779°
Eccentric anomaly
241.27491°
Mean motion
0.24307 °/min
Orbital period
1,481.06 mins
BSTAR
0
Loading maneuver chart data...
Computing Atmospheric mass density...

Documentation

Showing up to 5 results
|